This demonstration page uses our WeatherBlox Daily Observations layout. Learn more.

Left ArrowRight Arrow

39.01783, -85.05884

Hourly Observations for April 20, 2019

Temp ( °F °C ) Dew Point ( °F °C ) Humidity (%) Winds ( mph kmh ) Pressure ( in mb ) Visibility ( mi km ) Precip ( " mm )
12:52 am 00:52 Cloudy with Heavy Rain 43 6.1 40 4.4 89 89 N 33 54 29.46 998 4 6 0.10 2.54
12:58 am 00:58 Cloudy with Heavy Rain 43 6.1 40 4.4 89 89 N 31 50 29.48 998 4 6 0.02 0.51
1:12 am 01:12 Cloudy with Heavy Rain 42 5.6 39 3.9 89 89 N 29 46 29.49 998 3 5 0.10 2.54
1:35 am 01:35 Cloudy with Light Rain 42 5.6 40 4.4 92 92 NNE 20 31 29.50 999 5 8 0.19 4.83
1:52 am 01:52 Cloudy with Heavy Rain 42 5.6 39 3.9 89 89 N 15 24 29.48 998 4 6 0.24 6.10
2:52 am 02:52 Cloudy with Heavy Rain 42 5.6 39 3.9 89 89 N 15 24 29.48 998 4 6 0.23 5.84
4:52 am 04:52 Cloudy with Heavy Rain 41 5 40 4.4 96 96 N 12 19 29.47 998 4 6 0.09 2.29
5:13 am 05:13 Cloudy with Heavy Rain 41 5 40 4.4 96 96 N 13 20 29.51 999 4 6 0.07 1.78
5:52 am 05:52 Cloudy with Rain 40 4.4 39 3.9 97 97 NNW 12 19 29.48 998 5 8 0.30 7.62
6:26 am 06:26 Cloudy with Light Rain 40 4.4 39 3.9 97 97 NNW 10 17 29.52 1000 9 14 0.11 2.79
6:52 am 06:52 Cloudy with Rain 40 4.4 39 3.9 97 97 NW 13 20 29.49 999 6 10 0.14 3.56
7:52 am 07:52 Cloudy with Light Rain 39 3.9 37 2.8 93 93 NW 14 22 29.51 999 4 6 0.04 1.02
8:14 am 08:14 Cloudy with Mist and Fog 39 3.9 37 2.8 93 93 NW 13 20 29.55 1001 2 3 N/A
8:28 am 08:28 Cloudy with Light Rain 39 3.9 37 2.8 93 93 NW 13 20 29.55 1001 2 2 N/A
8:35 am 08:35 Cloudy with Light Rain 39 3.9 38 3.3 96 96 NW 13 20 29.56 1001 1 2 N/A
8:52 am 08:52 Cloudy with Light Rain 40 4.4 38 3.3 93 93 NNW 13 20 29.54 1000 1 2 N/A
9:52 am 09:52 Cloudy with Mist and Fog 42 5.6 40 4.4 92 92 NW 13 20 29.54 1001 2 2 N/A
10:12 am 10:12 Cloudy with Light Rain 42 5.6 40 4.4 92 92 NW 13 20 29.59 1002 1 1 N/A
10:52 am 10:52 Cloudy with Light Rain 43 6.1 41 5 93 93 NW 13 20 29.57 1001 2 2 N/A
11:52 am 11:52 Cloudy with Light Rain 44 6.7 42 5.6 93 93 NW 10 17 29.61 1003 2 2 N/A
12:52 pm 12:52 Cloudy with Light Rain 46 7.8 43 6.1 89 89 NNW 9 15 29.62 1003 2 2 N/A
1:22 pm 13:22 Cloudy with Light Rain 46 7.8 43 6.1 89 89 NNW 10 17 29.65 1004 2 2 0.01 0.25
1:52 pm 13:52 Cloudy with Light Rain 46 7.8 43 6.1 89 89 NNW 13 20 29.64 1004 2 2 0.01 0.25
2:52 pm 14:52 Cloudy with Light Rain 43 6.1 41 5 93 93 NNW 20 31 29.67 1005 2 2 0.01 0.25
3:17 pm 15:17 Cloudy 44 6.7 40 4.4 85 85 NNW 15 24 29.70 1006 10 16 N/A
3:52 pm 15:52 Cloudy 43 6.1 38 3.3 82 82 NNW 14 22 29.70 1006 10 16 N/A
4:52 pm 16:52 Cloudy 43 6.1 38 3.3 82 82 NNW 12 19 29.71 1006 10 16 N/A
5:45 pm 17:45 Cloudy 43 6.1 38 3.3 82 82 NW 9 15 29.75 1008 10 16 N/A
5:52 pm 17:52 Cloudy 43 6.1 38 3.3 82 82 NW 9 15 29.73 1007 10 16 N/A
6:52 pm 18:52 Cloudy with Light Rain 44 6.7 39 3.9 83 83 NW 12 19 29.76 1008 10 16 N/A
7:33 pm 19:33 Cloudy 43 6.1 39 3.9 86 86 WNW 7 11 29.80 1009 10 16 N/A
7:52 pm 19:52 Cloudy 42 5.6 38 3.3 85 85 WNW 10 17 29.80 1009 10 16 N/A
8:52 pm 20:52 Cloudy 42 5.6 38 3.3 85 85 WNW 8 13 29.82 1010 10 16 N/A
9:52 pm 21:52 Cloudy 42 5.6 39 3.9 89 89 WNW 6 9 29.85 1011 10 16 N/A
10:52 pm 22:52 Cloudy 42 5.6 38 3.3 85 85 W 5 7 29.86 1011 10 16 N/A
11:21 pm 23:21 Cloudy 41 5 38 3.3 89 89 W 7 11 29.89 1012 10 16 N/A
11:52 pm 23:52 Cloudy 41 5 39 3.9 93 93 N N/A 29.87 1011 10 16 N/A

Powered by AerisWeather